SL-16 DEB, 22387

Orbit data source: Space-Track

SL-16 DEB, 22387 is space debris in LEO originally from a launch on Fri, 25 Dec 1992 UTC launched from the Tyuratam Missile And Space Complex (TTMTR). Debris objects in space refer to the collection of defunct objects orbiting the Earth. Examples of debris include non-operational satellites, rocket bodies, and fragments generated from explosions, collisions, or faulty payload assembly.

Loading next visibility...
Identifier
22387, 1992-093CC
Orbit
LEO
Country
Flag of CISCIS
Related business
Manufacturer
Unknown
Mission
Spacecraft
Bus & Motor
Unknown
Mass
Unknown
Launch date (UTC)
1992-12-25 (33 years ago)
Launch vehicle
Unknown
Launch site
Tyuratam Missile And Space Complex (TTMTR)
Object type
Payload
Rocket body
Debris
Shape & HBR
Unknown shape, 0.1 m
Radar Cross Section
Small (<0.1 m²)

Expand to show TLE details & history
Last TLE update: 15 hours ago

TLE from 15 hours ago
0 SL-16 DEB
1 22387U 92093CC  26127.12405677  .00000741  00000-0  44626-3 0  9992
2 22387  70.8910  18.5070 0107586 225.3382 285.7562 14.07207932701178
Epoch: 2026-05-07T02:58Z
TLE epoch observation values (Epoch: 2026-05-07T02:58:38.504Z)
Latitude
28.33684°
Longitude
-81.83875°
Altitude
851.51 km
Speed
7.44 km/s
True Right ascension
12h 31m 11s
True Declination
28° 11' 43"
Sunlit
Object was in full shadow at epoch
Visualization orbit readout
Latitude
Unknown
Longitude
Unknown
Altitude
Unknown
Speed
Unknown
Apparent Right ascension
Unknown
Apparent Declination
Unknown
Sunlit
N/A
Visualization observer readout
Local Sidereal Time
02:02:09
Azimuth
Unknown
Elevation
Unknown
Doppler factor
Unknown
Orbital elements
Apogee altitude
944.831 km
Perigee altitude
788.939 km
Semi-major axis
7,245.022 km
Eccentricity
0.01076
Inclination
70.891°
RAAN
18.507°
Arg. of periapsis
225.3382°
True anomaly
284.56542°
Mean anomaly
285.7562°
Eccentric anomaly
285.16123°
Mean motion
3.51952 °/min
Orbital period
102.29 mins
BSTAR
0.00044626
Loading maneuver chart data...
Computing Atmospheric mass density...
Loading historical data...
Loading historical data...
Loading historical data...
Loading historical data...
Loading historical data...
Loading historical data...
Loading historical data...

Documentation

Showing up to 5 results
|